Location: Unspecified
(50.7693°N, 0.0000°E)
Time: 01:46:44
(UTC+00:00)

deb Explorer IX - Pass Details

Date: 23 June 2019
Orbit: 539 x 1112 km, 38.8° (Epoch: 21 July)

Event Time Altitude Azimuth Distance (km) Brightness Sun altitude
Rises 16:29:53 0° 258° (WSW) 3,916 ? 32.4°
Reaches altitude 10° 16:33:01 10° 248° (WSW) 2,972 ? 31.9°
Maximum altitude 16:39:07 29° 192° (SSW) 1,894 ? 30.9°
Drops below altitude 10° 16:45:00 10° 136° (SE) 2,860 ? 30.0°
Sets 16:47:58 0° 125° (SE) 3,745 ? 29.5°
